Regional Weather Roundup
Issued by NWS

Home | Current Version | Previous Version | Text Only | Print | Product List | Glossary On
Versions: 1 2 3 4 5 6 7 8 9 10 11 12 13 14 15 16 17 18 19 20 21 22 23 24 25 26 27 28 29 30 31 32 33 34 35 36 37 38 39 40 41 42 43 44 45 46 47 48 49 50
000
ASUS43 KMPX 172310
RWRMN
WEATHER ROUNDUP FOR MINNESOTA
NATIONAL WEATHER SERVICE TWIN CITIES/CHANHASSEN MN
500 PM CST SUN DEC 17 2017


NOTE: "FAIR" INDICATES FEW OR NO CLOUDS BELOW 12,000 FEET WITH NO
SIGNIFICANT WEATHER AND/OR OBSTRUCTIONS TO VISIBILITY. N/A MEANS
CURRENT SKY AND/OR WEATHER CONDITIONS ARE NOT AVAILABLE.

MNZ060>063-068>070-180000-
   Twin Cities Metro

CITY           SKY/WX    TMP DP  RH WIND       PRES   REMARKS
TWIN CITIES    CLOUDY    28  24  85 CALM      29.97F FOG
ST PAUL        CLOUDY    28  24  85 CALM      29.98F FOG
CRYSTAL        CLOUDY    27  20  75 CALM      29.96F
BLAINE         CLOUDY    28  27  93 CALM      29.96F FOG
LAKEVILLE        N/A     25  25 100 CALM      29.97S FOG
EDEN PRAIRIE   CLOUDY    27  23  85 CALM      29.96R FOG
SOUTH ST PAUL  CLOUDY    28  25  89 CALM      29.97S FOG
LAKE ELMO      CLOUDY    28  27  93 CALM      29.97F
$$
MNZ001>005-007-008-013>017-022>024-027-028-180000-
   Northwest Minnesota

CITY           SKY/WX    TMP DP  RH WIND       PRES   REMARKS
BEMIDJI        PTCLDY    27  24  87 S5        29.88F WCI  22
HALLOCK        CLEAR     18  16  93 S15       29.83F WCI   3
ROSEAU         CLEAR     18  12  79 S7        29.84S WCI   8
WARROAD        CLEAR     21  18  86 SW7       29.84S WCI  13
THIEF RVR FALL FOG       21  21 100 S12       29.87F VSB 1/2 WCI   9
CROOKSTON      CLOUDY    25  25 100 S12       29.88F FOG     WCI  14
FOSSTON        CLOUDY    25  25 100 S9        29.88F FOG     WCI  15
DETROIT LAKES  CLOUDY    28  28 100 S8        29.90F FOG     WCI  20
MOORHEAD       CLEAR     27  25  93 CALM      29.90F FOG
PARK RAPIDS    CLEAR     25  21  85 S5        29.89F WCI  19
MAHNOMEN       CLOUDY    27  26  95 S10       29.88F FOG     WCI  17
$$
MNZ006-009>011-018-025>026-180000-
   North Central Minnesota

CITY           SKY/WX    TMP DP  RH WIND       PRES   REMARKS
BAUDETTE       CLEAR     24  19  81 CALM      29.84R
FLAG ISLAND    CLEAR     14  12  92 S6        29.81F WCI   5
INTL FALLS     CLEAR     22  18  85 SW6       29.85F WCI  14
WASKISH        CLEAR     27  23  86 CALM      29.87F
BIG FORK       CLOUDY    28  25  86 SW8       29.89F WCI  20
LONGVILLE      CLOUDY    27  27 100 S5        29.91F FOG     WCI  21
GRAND RAPIDS   CLOUDY    26  24  92 S5        29.93F WCI  20
CRANE LAKE     CLOUDY    25  23  93 S8        29.90F WCI  16
ORR            CLOUDY    25  21  86 S6        29.86F WCI  18
COOK           CLOUDY    25  23  93 SW6       29.90F WCI  18
WALKER         FAIR      27  25  93 CALM      29.89F
$$
MNZ012-019>021-037-180000-
   Northeast Minnesota

CITY           SKY/WX    TMP DP  RH WIND       PRES   REMARKS
DULUTH         CLOUDY    24  21  88 W5        29.92F WCI  18
ELY            CLOUDY    23  21  93 SW7       29.90S WCI  15
HIBBING        CLOUDY    24  22  91 CALM      29.91F
EVELETH        CLOUDY    22  20  90 S3        29.92F FOG
DULUTH HARBOR  CLOUDY    27  21  80 SW3       29.97F
TWO HARBORS    CLOUDY    28  23  80 CALM      29.92S
SILVER BAY     CLOUDY    27  23  86 CALM      29.91F
GRAND MARAIS     N/A     30  25  81 W5        29.94F WCI  25
G MARAIS ARPRT CLOUDY    21  18  86 S3        29.87F FOG
$$
MNZ029>031-032-039>041-046>048-054>057-064-180000-
   West Central Minnesota

CITY           SKY/WX    TMP DP  RH WIND       PRES   REMARKS
FERGUS FALLS   CLOUDY    28  28 100 S5        29.95S FOG     WCI  23
WHEATON        CLEAR     30  28  93 SE7       29.95S FOG     WCI  23
MORRIS         CLOUDY    30  28  93 SE5       29.93S FOG     WCI  25
ALEXANDRIA     CLOUDY    28  27  96 CALM      29.93S FOG
ELBOW LAKE     CLOUDY    30  29  97 S8        29.92F WCI  22
WADENA         MOCLDY    27  27 100 SW5       29.91F WCI  21
GLENWOOD       CLOUDY    28  27  93 CALM      29.93F
APPLETON       CLOUDY    32  27  80 SE3       29.94S
BENSON         CLOUDY    30  25  80 S3        29.96S
ORTONVILLE     PTCLDY    28  27  93 SE5       29.93S WCI  23
MADISON        PTCLDY    36  28  75 S6        29.94F
WILLMAR        FAIR      28  27  93 CALM      29.97R FOG
$$
MNZ033>034-036-042>043-049>051-058-059-180000-
   Central Minnesota

CITY           SKY/WX    TMP DP  RH WIND       PRES   REMARKS
ST CLOUD       CLOUDY    24  20  84 SE3       29.96S
SAUK CENTRE    CLOUDY    26  24  91 SE3       29.94S
PAYNESVILLE    PTCLDY    28  24  87 CALM      29.95S
AITKIN         CLOUDY    25  21  86 CALM      29.92F
PINE RIVER     CLOUDY    25  23  93 S5        29.95F WCI  19
BRAINERD       CLOUDY    27  22  81 CALM      29.94S
STAPLES        CLOUDY    27  25  93 SW6       29.93S FOG     WCI  20
LONG PRAIRIE   CLOUDY    27  25  93 CALM      29.93F FOG
LITTLE FALLS   CLOUDY    27  19  74 CALM      29.94F
LITCHFIELD     CLOUDY    28  23  80 CALM      29.96R
BUFFALO        PTCLDY    26  21  80 CALM      29.97S
MAPLE LAKE     PTCLDY    27  23  86 CALM      29.97S
HUTCHINSON     CLOUDY    28  23  81 CALM      29.97S
$$
MNZ037-044-045-052-053-180000-
   East Central Minnesota

CITY           SKY/WX    TMP DP  RH WIND       PRES   REMARKS
PRINCETON      PTCLDY    25  21  86 CALM      29.96S
MORA           PTCLDY    23  19  86 CALM      29.98S
CAMBRIDGE      CLOUDY    27  19  74 CALM      29.97S
RUSH CITY      CLOUDY    25  22  89 CALM      29.98S
MOOSE LAKE     CLOUDY    25  19  80 CALM      29.93F
HINCKLEY       FAIR      25  23  93 CALM      29.96F
CLOQUET        CLOUDY    25  19  80 CALM      29.93F
MCGREGOR       CLOUDY    27  23  86 S5        29.94F WCI  21
$$
MNZ071>073-080-081-089-090-097-098-180000-
   Southwest Minnesota

CITY           SKY/WX    TMP DP  RH WIND       PRES   REMARKS
MONTEVIDEO     MOCLDY    30  25  80 S3        29.95S
GRANITE FALLS  CLOUDY    31  26  81 SE3       29.98R
CANBY          CLOUDY    34  29  81 E6        29.94F WCI  29
MARSHALL       CLOUDY    30  27  86 SE5       29.95S WCI  25
REDWOOD FALLS  CLOUDY    30  24  78 CALM      29.96S
OLIVIA         PTCLDY    30  25  80 CALM      29.96R
PIPESTONE      CLOUDY    36  28  75 NW3       29.92S
WINDOM           N/A     28  16  59 SW3       29.94S HAZE
WORTHINGTON    CLEAR     27  24  89 SE5       29.94S WCI  22
JACKSON        CLOUDY    28  21  74 CALM      29.95S
TRACY          CLOUDY    32  27  80 CALM      29.95S
SLAYTON        CLOUDY    32  28  84 CALM      29.94S
$$
MNZ065>067-074>077-082>085-091>093-180000-
   South Central Minnesota

CITY           SKY/WX    TMP DP  RH WIND       PRES   REMARKS
MANKATO        CLOUDY    24  22  91 E3        29.98R FOG
NEW ULM        CLOUDY    28  21  74 CALM      29.96F
ST JAMES       CLEAR     27  21  80 CALM      29.98R
FAIRMONT       CLOUDY    30  24  78 E3        29.97R
GLENCOE        CLOUDY    28  24  84 CALM      29.96S
FARIBAULT      CLOUDY    27  25  93 CALM      29.98R FOG
OWATONNA       CLOUDY    27  27 100 CALM      29.96R FOG
WASECA         CLOUDY    28  27  93 N3        29.98R FOG
ALBERT LEA     CLOUDY    28  27  93 CALM      29.95F FOG
$$
MNZ078>079-086>088-094>096-180000-
   Southeast Minnesota

CITY           SKY/WX    TMP DP  RH WIND       PRES   REMARKS
ROCHESTER      CLOUDY    28  27  96 CALM      29.96R
RED WING       CLOUDY    27  25  93 CALM      29.97S FOG
STANTON        CLOUDY    28  25  90 CALM      29.97R FOG
DODGE CENTER   CLOUDY    27  27 100 CALM      29.95S FOG
WINONA         CLOUDY    32  28  86 CALM      29.99S
AUSTIN         CLOUDY    28  27  93 CALM      29.96R
PRESTON        CLOUDY    28  27  96 CALM      29.96S FOG
$$
ABBREVIATIONS USED IN REMARKS
   TC - TEMPERATURES IN CELSIUS
  WCI - WIND CHILL INDEX
   HX - HEAT INDEX
  VSB - VISIBILITY
$$




USA.gov is the U.S. government's official web portal to all federal, state and local government web resources and services.